Wind_Speed
65 65 66 69 73 79 84 90 95 97 94 98 106 112 118 121 120 118 113 107 101 96 92 87 84 82 82 82 82 83 83 84 86 85 84 86 90 94
65 67 71 75 80 85 90 95 101 107 107 107 114 119 120 116 106 98 92 88 83 79 78 79 80 79 78 77 76 76 75 76 78 78 79 81 83 85
68 72 77 82 86 90 96 102 108 115 120 117 117 112 102 94 84 78 75 76 77 77 78 79 78 75 72 71 71 70 71 71 71 72 73 75 77 78
74 79 83 87 92 98 104 110 115 120 121 116 100 85 76 72 70 67 68 72 77 77 73 69 67 66 66 67 68 68 69 69 67 66 67 69 70 70
80 85 90 94 100 106 112 117 120 116 106 93 79 69 65 63 64 65 68 71 69 63 59 59 57 57 57 59 60 61 62 62 63 63 64 66 67 67
86 92 98 103 108 114 118 119 113 98 85 77 71 65 62 62 64 66 65 59 52 48 45 44 46 49 51 52 51 51 52 53 55 59 62 65 67 67
92 99 105 110 115 119 117 107 95 86 81 77 73 70 67 67 69 68 59 49 40 40 42 42 47 49 50 47 42 39 39 41 45 51 56 60 64 64
99 106 111 115 118 112 99 91 89 87 83 78 75 71 68 67 66 58 51 44 36 37 45 43 49 46 42 36 30 25 22 22 26 31 38 46 53 59
107 112 115 115 106 95 90 88 84 80 76 72 67 63 60 57 52 47 45 40 35 35 39 36 37 34 30 22 15 10 12 16 19 23 27 32 39 49
110 115 112 100 90 88 86 80 75 68 60 53 49 47 45 43 42 40 35 29 27 29 29 24 27 23 16 10 6 8 15 22 27 28 27 28 32 39
113 108 96 88 85 81 75 69 60 47 38 32 31 33 34 36 36 31 28 25 24 28 28 24 22 17 12 8 8 11 17 25 29 29 29 30 28 32
103 90 84 81 75 69 62 53 39 30 25 22 23 25 28 30 30 30 27 25 22 24 28 23 20 16 11 11 12 13 17 22 27 26 21 17 15 19
88 80 75 70 65 55 46 38 31 24 20 19 19 21 24 26 26 25 25 22 21 24 26 24 22 19 13 12 17 17 15 18 23 18 15 9 2 6
79 72 66 61 52 40 34 28 24 21 19 17 19 22 23 22 22 21 22 25 28 29 28 25 19 17 15 14 11 9 7 11 14 12 12 9 12 17
70 63 56 48 39 31 26 23 20 17 16 18 21 22 21 19 19 20 22 26 32 33 29 23 17 14 12 6 5 3 1 6 11 13 11 5 15 23
61 53 46 41 32 24 24 21 17 17 16 18 20 20 20 19 18 18 21 24 27 28 25 21 18 16 11 7 4 3 4 6 9 9 7 7 17 24
51 44 37 28 24 28 25 20 19 18 18 19 19 20 20 19 18 18 20 23 25 23 22 19 19 14 10 10 9 8 9 10 15 20 20 15 15 23
42 33 24 24 26 24 20 20 19 18 19 20 20 19 18 18 18 17 19 22 22 20 19 17 16 15 14 14 14 15 15 16 18 20 20 21 19 17
33 24 25 26 24 20 20 20 21 22 22 22 21 20 18 17 16 16 17 19 20 17 16 16 15 14 16 18 18 18 18 17 21 22 20 24 22 16
25 25 25 23 21 21 21 22 22 23 23 22 20 19 17 16 15 15 16 16 16 14 12 13 14 13 13 16 17 16 17 17 19 20 16 17 17 14
24 24 23 22 22 21 20 20 19 19 20 20 18 16 15 14 12 12 12 13 12 12 10 8 10 11 10 15 17 15 16 17 18 18 19 18 18 17
22 22 21 20 19 20 21 20 19 19 19 19 18 16 15 12 10 9 10 10 9 9 9 7 6 8 9 14 19 16 15 15 14 19 21 24 26 26
20 18 18 19 20 21 21 21 20 18 16 17 17 16 14 11 9 9 9 8 7 6 5 6 5 7 9 12 16 17 15 15 16 17 19 23 30 30
Wind_Direction
307 306 304 303 303 303 304 305 304 304 304 304 302 300 299 298 297 296 294 291 289 288 287 285 283 281 280 277 275 272 269 267 264 262 258 255 252 249
307 306 305 304 305 306 306 306 305 304 304 303 301 300 299 298 295 293 292 291 291 291 290 289 288 285 282 280 277 273 268 264 261 258 255 253 251 248
307 307 308 308 308 307 307 306 306 305 304 304 303 302 299 296 294 293 293 294 294 293 291 290 288 286 284 280 276 272 268 264 261 259 257 254 251 248
309 310 310 310 310 309 308 308 307 307 306 306 304 301 298 296 296 296 297 296 295 294 292 289 286 283 281 278 275 271 267 263 261 260 258 255 253 249
311 312 312 311 310 310 309 309 309 308 306 304 304 302 300 299 299 300 301 301 298 294 292 288 285 283 279 277 276 272 268 265 264 262 258 256 253 249
314 314 313 312 312 311 311 310 309 307 305 304 305 303 301 301 302 304 307 305 302 299 293 290 287 284 283 282 280 276 272 267 264 261 258 257 254 250
315 315 314 314 313 313 312 310 307 305 304 302 300 299 299 300 302 306 307 305 305 301 293 290 287 287 289 291 290 283 276 270 266 263 260 256 253 249
314 315 315 314 314 313 311 309 307 305 302 298 296 296 296 297 300 303 305 305 305 299 294 293 290 290 289 290 288 287 289 288 283 274 265 258 253 248
315 315 315 316 314 312 311 309 307 304 300 297 295 295 296 298 301 305 309 311 310 304 304 309 299 293 289 287 290 304 323 318 305 291 279 268 256 246
316 317 317 316 314 314 312 311 310 308 303 299 296 295 298 302 306 313 317 321 320 315 323 324 314 308 297 297 308 331 331 324 314 302 288 279 267 250
319 319 318 316 317 316 316 316 316 314 311 307 303 304 309 312 317 322 325 328 324 317 328 334 334 327 314 307 321 315 322 331 326 310 295 284 271 249
320 319 318 318 319 318 319 322 325 325 322 318 315 317 320 323 325 329 334 337 337 329 330 326 324 328 313 297 302 319 328 332 325 321 321 305 277 247
321 321 320 320 319 320 322 326 329 333 334 333 333 334 334 334 335 339 343 348 349 341 337 331 315 310 309 288 292 311 315 321 324 326 339 348 42 183
323 322 322 323 324 324 326 330 335 339 341 345 347 347 347 347 347 350 353 350 347 346 344 342 335 323 308 289 285 301 302 325 341 360 10 32 102 120
323 323 325 327 328 329 333 336 338 344 349 350 349 348 351 354 356 356 356 352 347 349 352 351 347 341 336 313 296 267 321 18 10 11 15 61 131 133
323 323 324 326 329 334 337 340 344 347 349 348 346 347 348 350 353 355 354 352 349 350 357 358 354 355 13 41 42 62 40 20 19 25 45 123 159 159
324 325 326 327 330 332 335 340 341 344 345 344 345 346 346 346 350 354 355 354 357 2 2 1 4 21 46 41 53 72 64 59 60 62 64 86 139 165
326 328 329 329 329 331 332 333 337 338 338 338 339 342 344 346 346 351 355 359 5 11 12 17 28 52 59 72 82 84 85 85 73 66 66 78 99 144
328 329 329 329 330 330 331 331 331 330 328 329 330 333 336 339 344 348 354 1 9 18 21 33 46 62 74 91 94 89 90 95 80 81 82 85 90 90
328 330 331 332 332 332 331 331 331 332 332 331 329 327 327 330 334 343 350 356 7 23 35 45 52 61 89 109 108 97 92 93 90 97 105 94 94 84
329 331 333 333 332 334 336 336 338 340 342 344 343 339 333 329 328 331 341 346 359 21 41 60 64 64 94 129 127 115 102 88 83 99 105 106 117 104
332 334 336 339 339 338 337 336 334 334 338 345 350 350 345 339 338 338 335 335 348 11 32 55 86 90 102 137 145 137 125 117 96 85 95 102 116 121
336 342 345 344 341 338 339 342 343 342 340 344 347 347 346 347 355 351 335 328 333 348 18 50 98 127 123 126 147 155 151 141 126 103 93 99 116 130
Height
5618 5609 5601 5592 5583 5571 5559 5546 5534 5528 5530 5522 5501 5486 5470 5453 5438 5421 5405 5392 5381 5373 5364 5359 5354 5350 5346 5344 5341 5338 5338 5338 5338 5343 5349 5351 5356 5364
5602 5594 5584 5575 5565 5552 5539 5525 5508 5494 5493 5495 5474 5454 5436 5418 5402 5388 5373 5360 5352 5347 5337 5330 5325 5320 5317 5315 5311 5308 5308 5308 5309 5313 5317 5320 5324 5332
5586 5577 5566 5555 5544 5530 5517 5502 5485 5463 5447 5451 5436 5415 5397 5382 5373 5363 5351 5338 5326 5321 5313 5305 5298 5293 5289 5287 5283 5281 5280 5282 5284 5287 5290 5293 5297 5306
5570 5559 5547 5535 5521 5506 5490 5474 5457 5436 5412 5400 5399 5382 5369 5357 5348 5341 5333 5322 5308 5297 5287 5280 5273 5269 5265 5261 5258 5255 5254 5255 5259 5262 5265 5269 5275 5281
5551 5539 5525 5512 5497 5480 5461 5443 5424 5404 5383 5366 5364 5358 5347 5337 5328 5322 5313 5300 5287 5275 5267 5258 5252 5248 5243 5239 5236 5233 5233 5235 5239 5241 5242 5245 5250 5257
5531 5516 5501 5485 5468 5450 5430 5410 5389 5372 5359 5347 5340 5335 5327 5318 5308 5300 5293 5280 5269 5258 5250 5243 5238 5232 5226 5221 5218 5216 5215 5216 5217 5218 5220 5222 5226 5234
5510 5493 5476 5457 5438 5418 5396 5376 5358 5347 5338 5329 5322 5316 5309 5301 5292 5283 5274 5265 5259 5247 5238 5233 5224 5218 5212 5206 5204 5201 5200 5199 5198 5198 5199 5201 5203 5211
5488 5470 5450 5430 5410 5388 5366 5348 5334 5322 5313 5304 5297 5293 5288 5281 5274 5267 5259 5251 5246 5239 5223 5222 5210 5206 5199 5196 5193 5191 5189 5187 5186 5184 5182 5182 5184 5190
5463 5444 5424 5402 5379 5360 5344 5328 5315 5302 5289 5279 5275 5272 5267 5263 5258 5253 5246 5238 5232 5225 5216 5212 5199 5192 5188 5186 5185 5184 5183 5181 5178 5175 5172 5169 5168 5171
5438 5416 5395 5374 5355 5339 5322 5309 5296 5282 5270 5262 5258 5255 5254 5250 5245 5241 5236 5231 5224 5217 5209 5202 5193 5186 5182 5181 5180 5179 5178 5176 5172 5166 5161 5157 5154 5154
5415 5391 5368 5351 5336 5319 5303 5291 5279 5267 5258 5253 5249 5246 5243 5240 5236 5233 5229 5224 5219 5211 5203 5197 5190 5184 5180 5178 5178 5177 5174 5169 5164 5158 5151 5145 5140 5138
5395 5372 5352 5333 5318 5304 5291 5280 5270 5262 5255 5250 5246 5242 5239 5235 5230 5225 5221 5217 5212 5205 5198 5193 5187 5183 5179 5177 5175 5174 5171 5167 5161 5153 5146 5138 5132 5128
5373 5356 5338 5322 5307 5295 5284 5276 5268 5261 5255 5250 5246 5242 5237 5232 5227 5223 5218 5213 5208 5202 5196 5189 5184 5180 5177 5175 5173 5171 5170 5165 5160 5154 5146 5140 5134 5129
5355 5339 5325 5311 5298 5288 5281 5274 5267 5261 5255 5250 5246 5241 5236 5231 5227 5222 5217 5210 5204 5199 5192 5185 5179 5176 5174 5172 5172 5171 5169 5166 5161 5156 5151 5147 5144 5141
5341 5327 5315 5304 5294 5286 5279 5273 5267 5261 5256 5251 5246 5241 5237 5232 5227 5222 5216 5210 5203 5196 5189 5183 5178 5175 5171 5168 5169 5169 5168 5166 5163 5159 5156 5154 5155 5157
5331 5320 5309 5299 5291 5285 5279 5272 5266 5262 5256 5252 5247 5242 5237 5232 5227 5222 5217 5211 5205 5197 5190 5185 5180 5176 5172 5171 5170 5171 5171 5168 5166 5162 5159 5158 5161 5166
5322 5312 5303 5296 5290 5283 5276 5271 5266 5260 5255 5251 5246 5242 5237 5232 5227 5222 5217 5212 5205 5199 5193 5188 5183 5179 5178 5176 5175 5175 5175 5173 5170 5168 5165 5163 5164 5169
5315 5306 5299 5293 5288 5281 5275 5270 5265 5260 5255 5250 5246 5242 5237 5232 5227 5222 5218 5213 5207 5201 5196 5192 5188 5185 5184 5182 5182 5182 5180 5178 5177 5176 5173 5172 5172 5175
5309 5302 5296 5290 5285 5279 5274 5270 5264 5259 5254 5249 5245 5240 5236 5231 5227 5223 5219 5215 5210 5205 5201 5197 5193 5191 5190 5189 5189 5189 5187 5185 5185 5184 5183 5183 5183 5184
5304 5299 5293 5288 5283 5277 5272 5268 5263 5257 5251 5246 5241 5237 5233 5230 5226 5223 5220 5217 5213 5209 5205 5202 5200 5198 5197 5197 5197 5196 5196 5194 5193 5192 5192 5194 5195 5194
5301 5296 5291 5286 5280 5275 5270 5265 5260 5255 5250 5244 5239 5235 5231 5228 5225 5222 5220 5217 5215 5211 5208 5206 5205 5203 5202 5203 5203 5204 5203 5203 5203 5202 5201 5203 5204 5205
5299 5295 5289 5284 5278 5273 5268 5263 5258 5253 5248 5243 5238 5233 5229 5226 5223 5220 5218 5217 5215 5213 5210 5209 5208 5207 5207 5207 5208 5209 5210 5211 5212 5212 5212 5212 5213 5215
5298 5293 5287 5282 5277 5271 5266 5260 5255 5250 5245 5241 5237 5232 5228 5225 5222 5220 5218 5216 5214 5212 5211 5210 5209 5209 5210 5211 5212 5213 5214 5216 5217 5219 5221 5221 5222 5225